Home   Weather   Bunbury   Past weeks

Flag for Australia Past Weather in Bunbury, Western Australia, Australia — Yesterday and Last 2 Weeks

Now
67 °F

Mild.


Feels Like: 67 °F
Forecast: 55 / 73 °F
Wind: 6 mph from West

Location: Bunbury

Current Time: Apr 26, 2017 at 2:27:39 pm

Latest Report: Apr 26, 2017 at 12:00 pm


Visibility: N/A

Pressure: 30.34 "Hg

Humidity: 60%

Dew Point: 52 °F

Location of BunburyLocation

Past Weather in Bunbury — Graph

°F

Bunbury Temperature Yesterday

Maximum temperature yesterday: 71 °F (at 12:00 pm)
Minimum temperature yesterday: 41 °F (at 6:00 am)
Average temperature yesterday: 58 °F

High & Low Weather Summary for the Past Weeks

 TemperatureHumidityPressure
High77 °F (Apr 23, 2:00 pm)96% (Apr 20, 8:00 am)30.37 "Hg (Apr 20, 8:00 am)
Low41 °F (Apr 25, 6:00 am)31% (Apr 11, 12:00 pm)29.87 "Hg (Apr 18, 3:00 pm)
Average63 °F73%30.11 "Hg
* Reported Apr 11 12:00 pm — Apr 26 12:00 pm, Bunbury, Weather by CustomWeather, © 2017

Note: Actual official high and low records may vary slightly from our data, if they occured in-between our weather recording intervals... More about our weather records

Advertising

Bunbury Weather History for the Previous 24 Hours

Scroll right to see more
 ConditionsComfort  
Time TempWeatherWind HumidityBarometerVisibility
12:00 pm
Wed, Apr 26
67 °FMild.6 mph60%30.34 "HgN/A
11:00 am68 °FMild.1 mph56%30.35 "HgN/A
9:00 am58 °FCool.1 mph92%30.37 "HgN/A
8:00 am53 °FCool.2 mph94%30.36 "HgN/A
6:00 am49 °FCool.2 mph94%30.34 "HgN/A
5:00 am49 °FCool.2 mph93%30.34 "HgN/A
3:00 am51 °FCool.5 mph92%30.35 "HgN/A
2:00 am51 °FCool.1 mph91%30.35 "HgN/A
12:00 am55 °FCool.3 mph88%30.35 "HgN/A
11:00 pm
Tue, Apr 25
55 °FCool.3 mph87%30.36 "HgN/A
9:00 pm58 °FCool.6 mph81%30.34 "HgN/A
8:00 pm60 °FCool.6 mph78%30.33 "HgN/A
6:00 pm65 °FMild.9 mph74%30.29 "HgN/A
5:00 pm67 °FMild.10 mph71%30.28 "HgN/A
3:00 pm69 °FMild.12 mph60%30.27 "HgN/A
2:00 pm70 °FMild.8 mph52%30.27 "HgN/A
Weather by CustomWeather, © 2017

See weather overviewHow to use our weather pages